Weather History for Wisconsin Rapids, WI

Change the Weather History Date:

Thursday, December 6, 2012

  Actual Average Record
Temperature  
Mean Temperature 38 °F -  
Max Temperature 45 °F 29 °F 48 °F (1988)
Min Temperature 32 °F 12 °F -23 °F (1972)
Degree Days  
Heating Degree Days 26    
Moisture  
Dew Point 30 °F    
Average Humidity 69    
Maximum Humidity 78    
Minimum Humidity 61    
Precipitation  
Precipitation 0.00 in - - ()
Sea Level Pressure  
Sea Level Pressure 29.92 in    
Wind  
Wind Speed 9 mph (SW)    
Max Wind Speed 15 mph    
Max Gust Speed 23 mph    
Visibility 10 miles    
Events      
Averages and records for this station are not official NWS values.
T = Trace of Precipitation, MM = Missing Value Source: NWS Daily Summary

Daily Weather History Graph

Daily Weather History Graph

Search for Another Location

Airport:

Trip Planner

Search our weather history database for the weather conditions in past years. The results will help you decide how hot, cold, wet, or windy it might be!

Date:

Astronomy

Dec. 06, 2012 Rise Set
Actual Time 7:21 AM CST 4:20 PM CST
Civil Twilight 6:48 AM CST 4:53 PM CST
Nautical Twilight 6:11 AM CST 5:29 PM CST
Astronomical Twilight 5:36 AM CST 6:04 PM CST
Moon No Moon Rise 12:00 PM CST (12/6)
Length of Visible Light 10h 05m
Length of Day
8h 59m
Waning Gibbous, 49% of the Moon is Illuminated
Dec 6
Waning Gibbous
Dec 13
New
Dec 19
First Quarter
Dec 28
Full
Jan 4
Last Quarter

Hourly Weather History & Observations

Time (CST) Temp. Windchill Dew Point Humidity Pressure Visibility Wind Dir Wind Speed Gust Speed Precip Events Conditions
12:54 AM 32.0 °F 25.6 °F 24.1 °F 73% 30.14 in 10.0 mi SSE 6.9 mph - N/A   Overcast
1:54 AM 33.1 °F 24.9 °F 24.1 °F 70% 30.09 in 10.0 mi SSE 10.4 mph 20.7 mph N/A   Overcast
2:54 AM 34.0 °F 26.6 °F 25.0 °F 70% 30.06 in 10.0 mi SSE 9.2 mph 17.3 mph N/A   Overcast
3:54 AM 35.1 °F 25.5 °F 25.0 °F 67% 30.01 in 10.0 mi SSE 15.0 mph 23.0 mph N/A   Overcast
4:54 AM 36.0 °F 29.6 °F 26.1 °F 67% 30.02 in 10.0 mi South 8.1 mph - N/A   Overcast
5:54 AM 35.1 °F 27.9 °F 27.0 °F 72% 29.99 in 10.0 mi South 9.2 mph 19.6 mph N/A   Overcast
6:54 AM 35.1 °F 28.6 °F 27.0 °F 72% 29.99 in 10.0 mi South 8.1 mph - N/A   Overcast
7:54 AM 36.0 °F 29.6 °F 28.0 °F 73% 29.96 in 10.0 mi South 8.1 mph - N/A   Overcast
9:54 AM 37.9 °F 31.5 °F 28.9 °F 70% 29.95 in 10.0 mi South 9.2 mph - N/A   Overcast
10:54 AM 39.9 °F 33.4 °F 30.0 °F 68% 29.91 in 10.0 mi South 10.4 mph 17.3 mph N/A   Overcast
11:54 AM 42.1 °F 35.2 °F 30.9 °F 65% 29.89 in 10.0 mi SW 12.7 mph 19.6 mph 0.00 in   Overcast
12:54 PM 43.0 °F 37.7 °F 32.0 °F 65% 29.86 in 10.0 mi SSW 9.2 mph - N/A   Overcast
1:09 PM 44.6 °F 39.2 °F 32.0 °F 61% 29.83 in 10.0 mi SSW 10.4 mph - N/A   Overcast
1:27 PM 44.6 °F 38.8 °F 32.0 °F 61% 29.82 in 10.0 mi SSW 11.5 mph 17.3 mph N/A   Overcast
1:46 PM 44.6 °F 39.2 °F 32.0 °F 61% 29.81 in 10.0 mi SSW 10.4 mph - N/A   Overcast
1:54 PM 44.1 °F 38.6 °F 32.0 °F 63% 29.84 in 10.0 mi SW 10.4 mph - N/A   Overcast
2:39 PM 44.6 °F 39.7 °F 33.8 °F 66% 29.80 in 10.0 mi SW 9.2 mph - N/A   Overcast
2:54 PM 45.0 °F 40.6 °F 33.1 °F 63% 29.83 in 10.0 mi SW 8.1 mph - N/A   Scattered Clouds
3:54 PM 44.1 °F 39.5 °F 33.1 °F 65% 29.84 in 10.0 mi SW 8.1 mph - N/A   Clear
4:54 PM 43.0 °F 39.5 °F 34.0 °F 71% 29.85 in 10.0 mi West 5.8 mph - N/A   Mostly Cloudy
5:54 PM 43.0 °F 40.3 °F 34.0 °F 71% 29.88 in 10.0 mi WSW 4.6 mph - N/A   Overcast
6:21 PM 42.8 °F 38.6 °F 35.6 °F 76% 29.85 in 10.0 mi West 6.9 mph - N/A   Overcast
6:54 PM 42.1 °F 37.1 °F 35.1 °F 76% 29.89 in 10.0 mi West 8.1 mph - N/A   Mostly Cloudy
7:43 PM 39.2 °F 31.6 °F 30.2 °F 70% 29.88 in 10.0 mi NW 12.7 mph - N/A   Scattered Clouds
7:54 PM 37.9 °F 29.2 °F 28.9 °F 70% 29.92 in 10.0 mi NW 15.0 mph - N/A   Clear
8:54 PM 35.1 °F 29.3 °F 27.0 °F 72% 29.93 in 10.0 mi NW 6.9 mph - N/A   Clear
9:54 PM 35.1 °F 30.1 °F 28.0 °F 76% 29.94 in 10.0 mi WNW 5.8 mph - N/A   Mostly Cloudy
10:54 PM 35.1 °F 29.3 °F 27.0 °F 72% 29.94 in 10.0 mi WNW 6.9 mph - N/A   Mostly Cloudy
11:54 PM 33.1 °F 27.7 °F 27.0 °F 78% 29.94 in 10.0 mi NW 5.8 mph - N/A   Overcast